Madison, WI

2:36 AM CDT on April 20, 2018 (GMT -0500)
Dane County Regional-Truax

Weather History for KMSN - May, 2014

Change the Weather History Date:

Thursday, May 1, 2014

  Actual Average Record
Temperature  
Mean Temperature 46 °F 52 °F  
Max Temperature 51 °F 64 °F 93 °F (1952)
Min Temperature 40 °F 41 °F 19 °F (1978)
Degree Days  
Heating Degree Days 19 13  
Month to date heating degree days 19 13  
Since 1 July heating degree days 7859 7020  
Cooling Degree Days 0 0  
Month to date cooling degree days 0 0  
Year to date cooling degree days 0 4  
Moisture  
Dew Point 40 °F    
Average Humidity 82    
Maximum Humidity 92    
Minimum Humidity 71    
Precipitation  
Precipitation 0.03 in 0.11 in 1.30 in (1896)
Month to date precipitation 0.03 0.11  
Year to date precipitation 8.31 8.39  
Snow  
Snow 0.00 in 0.00 in 0.40 in (1909)
Month to date snowfall 0.0 0.0  
Since 1 July snowfall 59.2 50.7  
Snow Depth 0.00 in    
Sea Level Pressure  
Sea Level Pressure 29.69 in    
Wind  
Wind Speed 6 mph (WSW)    
Max Wind Speed 17 mph    
Max Gust Speed 23 mph    
Visibility 9 miles    
Events Rain    
T = Trace of Precipitation, MM = Missing Value Source: NWS Daily Summary

Daily Weather History Graph

Daily Weather History Graph

Search for Another Location

Airport or City:

Astronomy

May. 01, 2014 Rise Set
Actual Time 5:50 AM CDT 7:58 PM CDT
Civil Twilight 5:19 AM CDT 8:29 PM CDT
Nautical Twilight 4:41 AM CDT 9:08 PM CDT
Astronomical Twilight 3:59 AM CDT 9:50 PM CDT
Moon 7:36 AM CDT (5/1) 10:33 PM CDT (5/1)
Length of Visible Light 15h 10m
Length of Day
14h 07m
Waxing Crescent, 7% of the Moon is Illuminated
May 1
Waxing Crescent
May 6
First Quarter
May 14
Full
May 21
Last Quarter
May 28
New

Hourly Weather History & Observations

Time (CDT) Temp. Windchill Dew Point Humidity Pressure Visibility Wind Dir Wind Speed Gust Speed Precip Events Conditions
12:53 AM 43.0 °F 38.2 °F 36.0 °F 76% 29.70 in 10.0 mi SW 8.1 mph - N/A   Overcast
1:29 AM 42.1 °F 40.2 °F 36.0 °F 79% 29.67 in 10.0 mi SW 3.5 mph - N/A   Overcast
1:53 AM 42.1 °F 38.4 °F 36.0 °F 79% 29.68 in 9.0 mi WSW 5.8 mph - 0.00 in Rain Light Rain
2:53 AM 42.1 °F 37.7 °F 37.0 °F 82% 29.66 in 10.0 mi South 6.9 mph - 0.00 in Rain Light Rain
3:07 AM 41.0 °F 38.0 °F 37.0 °F 86% 29.65 in 10.0 mi SSW 4.6 mph - 0.00 in   Overcast
3:53 AM 41.0 °F 36.4 °F 37.0 °F 86% 29.65 in 10.0 mi South 6.9 mph - 0.00 in   Overcast
4:05 AM 41.0 °F 37.1 °F 37.0 °F 86% 29.64 in 10.0 mi SSW 5.8 mph - N/A   Overcast
4:29 AM 39.9 °F 35.8 °F 37.9 °F 93% 29.63 in 3.0 mi SSW 5.8 mph - N/A   Overcast
4:39 AM 39.9 °F 36.7 °F 37.9 °F 93% 29.64 in 2.5 mi SW 4.6 mph - 0.00 in Rain Light Rain
4:43 AM 39.9 °F 37.8 °F 37.9 °F 93% 29.64 in 4.0 mi WSW 3.5 mph - 0.00 in Rain Light Rain
4:53 AM 39.9 °F - 37.9 °F 93% 29.65 in 9.0 mi Calm Calm - 0.00 in   Overcast
5:53 AM 39.9 °F 37.8 °F 37.9 °F 93% 29.64 in 10.0 mi SW 3.5 mph - N/A   Overcast
6:10 AM 39.9 °F 36.7 °F 37.9 °F 93% 29.64 in 10.0 mi WSW 4.6 mph - N/A   Overcast
6:14 AM 39.9 °F 36.7 °F 37.9 °F 93% 29.63 in 10.0 mi SW 4.6 mph - N/A   Overcast
6:53 AM 39.9 °F 36.7 °F 37.9 °F 93% 29.65 in 7.0 mi SW 4.6 mph - 0.00 in   Overcast
7:03 AM 39.9 °F - 37.9 °F 93% 29.63 in 10.0 mi Calm Calm - N/A   Overcast
7:11 AM 39.9 °F 37.8 °F 37.9 °F 93% 29.63 in 10.0 mi Variable 3.5 mph - N/A   Overcast
7:22 AM 39.9 °F 35.8 °F 37.0 °F 89% 29.64 in 10.0 mi WSW 5.8 mph - N/A   Overcast
7:34 AM 41.0 °F 37.1 °F 37.0 °F 86% 29.64 in 10.0 mi WSW 5.8 mph - N/A   Overcast
7:53 AM 39.9 °F 35.8 °F 37.9 °F 93% 29.66 in 7.0 mi SW 5.8 mph - N/A   Overcast
8:53 AM 41.0 °F 37.1 °F 37.9 °F 89% 29.66 in 10.0 mi Variable 5.8 mph - N/A   Overcast
9:53 AM 43.0 °F 40.3 °F 39.0 °F 86% 29.66 in 5.0 mi Variable 4.6 mph - 0.00 in   Light Drizzle
10:15 AM 43.0 °F 39.5 °F 39.9 °F 89% 29.65 in 10.0 mi SW 5.8 mph - 0.00 in   Overcast
10:53 AM 45.0 °F 42.6 °F 39.0 °F 80% 29.67 in 10.0 mi Variable 4.6 mph - 0.00 in   Overcast
11:18 AM 44.1 °F 40.1 °F 39.9 °F 85% 29.66 in 10.0 mi SW 6.9 mph - 0.00 in Rain Light Rain
11:25 AM 44.1 °F 39.0 °F 39.9 °F 85% 29.66 in 8.0 mi SW 9.2 mph - 0.00 in Rain Light Rain
11:38 AM 44.1 °F 40.1 °F 39.9 °F 85% 29.66 in 3.0 mi WSW 6.9 mph - 0.00 in   Overcast
11:53 AM 44.1 °F 39.5 °F 39.9 °F 85% 29.68 in 5.0 mi WSW 8.1 mph - 0.00 in   Light Drizzle
12:20 PM 46.0 °F 43.1 °F 41.0 °F 83% 29.67 in 10.0 mi SSW 5.8 mph - 0.00 in   Overcast
12:29 PM 45.0 °F 42.6 °F 39.9 °F 82% 29.67 in 10.0 mi Variable 4.6 mph - 0.00 in   Overcast
12:53 PM 46.0 °F 43.9 °F 39.0 °F 76% 29.68 in 10.0 mi Variable 4.6 mph - 0.00 in   Overcast
1:53 PM 48.0 °F - 39.0 °F 71% 29.69 in 10.0 mi Variable 5.8 mph - N/A   Overcast
2:53 PM 48.9 °F - 39.0 °F 69% 29.70 in 10.0 mi WNW 10.4 mph 16.1 mph N/A   Overcast
3:17 PM 51.1 °F - 39.9 °F 66% 29.69 in 10.0 mi WNW 11.5 mph - N/A   Mostly Cloudy
3:32 PM 50.0 °F - 39.9 °F 68% 29.69 in 10.0 mi WSW 6.9 mph - N/A   Mostly Cloudy
3:53 PM 50.0 °F - 39.0 °F 66% 29.71 in 10.0 mi WSW 5.8 mph - 0.00 in Rain Light Rain
4:13 PM 48.0 °F - 43.0 °F 83% 29.70 in 10.0 mi WNW 10.4 mph - 0.01 in Rain Light Rain
4:42 PM 48.9 °F - 42.1 °F 77% 29.71 in 10.0 mi West 8.1 mph - 0.01 in Rain Light Rain
4:53 PM 48.0 °F - 42.1 °F 80% 29.73 in 5.0 mi West 12.7 mph 23.0 mph 0.01 in Rain Light Rain
5:53 PM 46.9 °F - 43.0 °F 86% 29.74 in 3.0 mi West 8.1 mph - 0.01 in Rain Light Rain
6:04 PM 46.9 °F - 43.0 °F 86% 29.73 in 2.5 mi West 9.2 mph - 0.00 in   Light Drizzle
6:19 PM 46.9 °F - 43.0 °F 86% 29.73 in 8.0 mi Variable 6.9 mph - 0.01 in Rain Light Rain
6:53 PM 46.9 °F - 42.1 °F 83% 29.75 in 10.0 mi Variable 4.6 mph - 0.01 in   Overcast
7:53 PM 46.9 °F - 42.1 °F 83% 29.77 in 10.0 mi WNW 8.1 mph - N/A   Overcast
8:00 PM 46.0 °F 42.5 °F 42.1 °F 86% 29.75 in 10.0 mi WNW 6.9 mph - N/A   Overcast
8:22 PM 46.0 °F 43.9 °F 43.0 °F 89% 29.76 in 10.0 mi Variable 4.6 mph - N/A   Overcast
8:53 PM 46.9 °F - 42.1 °F 83% 29.79 in 10.0 mi West 6.9 mph - N/A   Overcast
9:27 PM 46.9 °F - 43.0 °F 86% 29.78 in 9.0 mi WNW 6.9 mph - N/A   Overcast
9:53 PM 46.0 °F 42.5 °F 43.0 °F 89% 29.80 in 10.0 mi WNW 6.9 mph - 0.00 in   Overcast
10:53 PM 46.0 °F 42.5 °F 43.0 °F 89% 29.81 in 10.0 mi WNW 6.9 mph - N/A   Overcast
11:30 PM 46.0 °F 43.1 °F 43.0 °F 89% 29.79 in 10.0 mi WNW 5.8 mph - N/A   Overcast
11:50 PM 46.4 °F 42.9 °F 42.8 °F 87% 29.79 in 10.0 mi WNW 6.9 mph - N/A   Overcast
11:53 PM 46.0 °F 42.5 °F 42.1 °F 86% 29.81 in 10.0 mi West 6.9 mph - N/A   Overcast